Weather in Burdukovo

Russia / Kostroma Oblast     59°03′59″N   42°34′44″E
temp.,
°C
wind,
m/s
gust,
m/s
humid.,
%
clouds,
%
prec.,
mm/h
press.,
hPa
HPBL,
m
15 april, thu
thu1500:00+10wsw2684100 0.0 1018159
03:00+9n389896 0.0 1019275
06:00+7nne379299 0.0 1020385
09:00+7nne4885100 0.0 1022517
12:00+6nne51085100 0.0 1024633
15:00+4ne41193100 0.3 1025578
18:00+5ne3987100 0.0 1026489
21:00+4ne3118167 0.0 1027471
16 april, fri
fri1600:00+2ne4127451 0.0 1029452
03:000ne3128241 0.0 1029352
06:000ne312818 0.0 1030386
09:00+5ene48565 0.0 1030688
12:00+8ene46443 0.0 10301069
15:00+10ene46393 0.0 10301218
18:00+8ne37495 0.0 1030399
21:00+3ne27705 0.0 1031119
17 april, sat
sat1700:00+2ne27773 0.0 1032137
03:00+1ne27795 0.0 1033125
06:00+1ne28770 0.0 1033175
09:00+7ne35560 0.0 1033658
12:00+10ne34455 0.0 10321355
15:00+11ne35395 0.0 10311572
18:00+10nne35480 0.0 1031254
21:00+5nne23680 0.0 103256
18 april, sun
sun1800:00+3nne22725 0.0 103225
03:00+2nne22795 0.0 103341
06:00+2nne258176 0.0 1033131
09:00+8ne346055 0.0 1033654
12:00+11nne344744 0.0 10331492
15:00+12ne344598 0.0 10321854
18:00+9ene365835 0.0 1033606
21:00+4e387977 0.0 1035268
19 april, mon
mon1900:00+3e238364 0.0 103673
03:00+1e228660 0.0 103732
06:00+1ese23805 0.0 103884
09:00+6se23465 0.0 1038658
12:00+9ese22385 0.0 10381464
15:00+10ese223663 0.0 10371770
18:00+9ese23458 0.0 1037168
21:00+4se22615 0.0 103829